weather.gov     
National Weather Service

Terminal Aerodrome Forecast
NWS Homepage
This page is being discontinued on March 12, 2014.
The same data is available at this site. Please update your bookmarks.
Thank you, and we apologize for the inconvenience.
Please send an email to SR-SRH.Webmaster@noaa.gov with any concerns.


Current Version
Previous Version:    01  02  03  04  05  06  07  08  09  10  11  12  13  14  15  16  17  18  19  20  21  22  23  24  25  26  27  28  29  30  
   31  32  33  34  35  36  37  38  39  40  41  42  43  
[Printable]
234
FTUS41 KBOX 281126
TAFBED
TAF
KBED 281126Z 2812/2912 34008KT P6SM -SN SCT010 OVC040
      TEMPO 2812/2814 3SM -SN OVC015
     FM281500 32008KT P6SM OVC025
     FM281700 32008KT P6SM BKN100
     FM282200 30006KT P6SM SCT250
     FM290600 00000KT P6SM SCT250=




234
FTUS41 KBOX 281126
TAFBED
TAF
KBED 281126Z 2812/2912 34008KT P6SM -SN SCT010 OVC040
      TEMPO 2812/2814 3SM -SN OVC015
     FM281500 32008KT P6SM OVC025
     FM281700 32008KT P6SM BKN100
     FM282200 30006KT P6SM SCT250
     FM290600 00000KT P6SM SCT250=


U.S. Dept. of Commerce
NOAA National Weather Service
1325 East West Highway
Silver Spring, MD 20910
E-mail: w-nws.webmaster@noaa.gov
Page last modified: May 16, 2007
NATIONAL WEATHER SERVICE: for Safety, for Work, for Fun - FOR LIFE